Weather History for Peoria, IL

Change the Weather History Date:

Wednesday, February 27, 2013

  Actual Average Record
Temperature  
Mean Temperature 31 °F 34 °F  
Max Temperature 32 °F 42 °F 72 °F (1976)
Min Temperature 30 °F 25 °F -9 °F (1934)
Degree Days  
Heating Degree Days 34 31  
Month to date heating degree days 975 964  
Since 1 July heating degree days 4262 4485  
Cooling Degree Days 0 0  
Month to date cooling degree days 0 0  
Year to date cooling degree days 0 0  
Moisture  
Dew Point 29 °F    
Average Humidity 89    
Maximum Humidity 92    
Minimum Humidity 85    
Precipitation  
Precipitation 0.14 in 0.08 in 1.18 in (2011)
Month to date precipitation 2.88 1.71  
Year to date precipitation 6.71 3.49  
Snow  
Snow 1.00 in 0.20 in 3.00 in (1984)
Month to date snowfall 8.1 6.0  
Since 1 July snowfall 11.7 21.1  
Snow Depth 4.00 in    
Sea Level Pressure  
Sea Level Pressure 29.70 in    
Wind  
Wind Speed 8 mph (NW)    
Max Wind Speed 14 mph    
Max Gust Speed 20 mph    
Visibility 3 miles    
Events Snow    
T = Trace of Precipitation, MM = Missing Value Source: NWS Daily Summary

Daily Weather History Graph

Daily Weather History Graph

Search for Another Location

Airport:

Trip Planner

Search our weather history database for the weather conditions in past years. The results will help you decide how hot, cold, wet, or windy it might be!

Date:

Astronomy

Feb. 27, 2013 Rise Set
Actual Time 6:35 AM CST 5:48 PM CST
Civil Twilight 6:07 AM CST 6:15 PM CST
Nautical Twilight 5:36 AM CST 6:47 PM CST
Astronomical Twilight 5:04 AM CST 7:19 PM CST
Moon 8:10 PM CST (2/27) 7:09 AM CST (2/27)
Length of Visible Light 12h 07m
Length of Day
11h 12m
Waning Gibbous, 96% of the Moon is Illuminated
Feb 27
Waning Gibbous
Mar 4
Last Quarter
Mar 11
New
Mar 19
First Quarter
Mar 27
Full

Hourly Weather History & Observations

Time (CST) Temp. Windchill Dew Point Humidity Pressure Visibility Wind Dir Wind Speed Gust Speed Precip Events Conditions
12:05 AM 32.0 °F 24.8 °F 30.0 °F 92% 29.57 in 3.0 mi NNW 8.1 mph - 0.00 in Snow Light Snow
12:54 AM 32.0 °F 25.6 °F 30.0 °F 92% 29.60 in 7.0 mi NNW 6.9 mph - 0.00 in   Overcast
1:54 AM 32.0 °F 26.4 °F 30.0 °F 92% 29.61 in 8.0 mi Variable 5.8 mph - N/A   Overcast
2:54 AM 32.0 °F 25.6 °F 30.0 °F 92% 29.62 in 7.0 mi NW 6.9 mph - N/A   Overcast
3:54 AM 30.2 °F 23.4 °F 28.4 °F 93% 29.60 in 5.0 mi NNW 6.9 mph - N/A   Overcast
4:50 AM 30.2 °F 22.6 °F 28.4 °F 93% 29.61 in 2.5 mi NW 8.1 mph - 0.01 in Snow Light Snow
4:54 AM 30.9 °F 24.3 °F 28.9 °F 92% 29.63 in 2.5 mi NW 6.9 mph - 0.01 in Snow Light Snow
5:08 AM 30.9 °F 24.3 °F 28.9 °F 92% 29.61 in 4.0 mi Variable 6.9 mph - 0.00 in   Overcast
5:54 AM 30.0 °F 23.2 °F 28.0 °F 92% 29.64 in 3.0 mi NNW 6.9 mph - 0.00 in Snow Light Snow
6:19 AM 30.0 °F 22.4 °F 28.0 °F 92% 29.63 in 2.5 mi NW 8.1 mph - 0.01 in Snow Light Snow
6:54 AM 30.0 °F 22.4 °F 28.0 °F 92% 29.66 in 2.0 mi NW 8.1 mph - 0.02 in Snow Light Snow
6:57 AM 30.0 °F 25.2 °F 28.0 °F 92% 29.64 in 1.8 mi Variable 4.6 mph - 0.00 in Snow Light Snow
7:26 AM 30.0 °F 23.2 °F 28.0 °F 92% 29.65 in 1.8 mi NNW 6.9 mph - 0.01 in Snow Light Snow
7:54 AM 30.0 °F 24.1 °F 28.0 °F 92% 29.68 in 1.5 mi WNW 5.8 mph - 0.01 in Snow Light Snow
7:57 AM 30.0 °F 24.1 °F 28.0 °F 92% 29.66 in 1.2 mi WNW 5.8 mph - 0.00 in Snow Light Snow
8:09 AM 30.0 °F 24.1 °F 28.0 °F 92% 29.66 in 1.8 mi NW 5.8 mph - 0.00 in Snow Light Snow
8:16 AM 30.0 °F 23.2 °F 28.0 °F 92% 29.66 in 2.5 mi NW 6.9 mph - 0.00 in Snow Light Snow
8:24 AM 30.0 °F 23.2 °F 28.0 °F 92% 29.66 in 3.0 mi NW 6.9 mph - 0.00 in Snow Light Snow
8:36 AM 30.0 °F 23.2 °F 28.0 °F 92% 29.66 in 2.0 mi WNW 6.9 mph - 0.00 in Snow Light Snow
8:54 AM 30.2 °F 23.4 °F 28.4 °F 93% 29.66 in 3.0 mi NW 6.9 mph - N/A Snow Light Snow
9:07 AM 30.9 °F 24.3 °F 28.0 °F 89% 29.66 in 2.5 mi NW 6.9 mph - 0.00 in Snow Light Snow
9:14 AM 30.9 °F 23.5 °F 28.0 °F 89% 29.67 in 3.0 mi NW 8.1 mph - 0.00 in Snow Light Snow
9:26 AM 30.9 °F 23.5 °F 28.0 °F 89% 29.67 in 2.5 mi NW 8.1 mph - 0.00 in Snow Light Snow
9:39 AM 30.9 °F 24.3 °F 28.0 °F 89% 29.67 in 1.8 mi Variable 6.9 mph - 0.00 in Snow Light Snow
9:52 AM 30.2 °F 22.6 °F 28.4 °F 93% 29.67 in 2.0 mi NW 8.1 mph - 0.01 in Snow Light Snow
9:54 AM 30.9 °F 23.5 °F 28.0 °F 89% 29.69 in 2.0 mi NW 8.1 mph - 0.01 in Snow Light Snow
10:38 AM 30.9 °F 23.5 °F 28.0 °F 89% 29.67 in 1.5 mi NW 8.1 mph - 0.00 in Snow Light Snow
10:54 AM 32.0 °F 26.4 °F 28.0 °F 85% 29.69 in 1.8 mi WNW 5.8 mph - 0.01 in Snow Light Snow
11:06 AM 32.0 °F 24.2 °F 28.0 °F 85% 29.67 in 2.0 mi NW 9.2 mph - 0.00 in Snow Light Snow
11:54 AM 32.0 °F 24.8 °F 28.0 °F 85% 29.70 in 2.5 mi NW 8.1 mph - 0.00 in Snow Light Snow
12:04 PM 32.0 °F 25.6 °F 28.0 °F 85% 29.67 in 3.0 mi NW 6.9 mph - 0.00 in Snow Light Snow
12:26 PM 32.0 °F 24.2 °F 28.0 °F 85% 29.68 in 1.8 mi NW 9.2 mph - 0.00 in Snow Light Snow
12:35 PM 32.0 °F 25.6 °F 28.0 °F 85% 29.68 in 0.8 mi WNW 6.9 mph - 0.00 in Snow Light Snow
12:38 PM 32.0 °F 23.6 °F 28.0 °F 85% 29.68 in 1.0 mi NW 10.4 mph - 0.00 in Snow Light Snow
12:54 PM 32.0 °F 23.6 °F 28.0 °F 85% 29.70 in 1.0 mi NW 10.4 mph - 0.01 in Snow Light Snow
12:59 PM 32.0 °F 24.2 °F 28.9 °F 88% 29.68 in 1.0 mi NW 9.2 mph - 0.00 in Snow Light Snow
1:09 PM 32.0 °F 23.6 °F 28.0 °F 85% 29.68 in 1.0 mi WNW 10.4 mph - 0.00 in Snow Light Snow
1:16 PM 32.0 °F 24.2 °F 28.0 °F 85% 29.68 in 1.0 mi WNW 9.2 mph - 0.00 in Snow Light Snow
1:29 PM 32.0 °F 24.8 °F 28.9 °F 88% 29.68 in 1.5 mi NW 8.1 mph - 0.01 in Snow Light Snow
1:49 PM 32.0 °F 24.2 °F 28.4 °F 87% 29.68 in 1.2 mi WNW 9.2 mph - N/A Snow Light Snow
1:54 PM 32.0 °F 23.0 °F 28.9 °F 88% 29.70 in 1.0 mi WNW 11.5 mph - 0.01 in Snow Light Snow
1:58 PM 32.0 °F 23.6 °F 28.0 °F 85% 29.68 in 0.8 mi WNW 10.4 mph - 0.00 in Snow Light Snow
2:02 PM 32.0 °F 24.2 °F 28.4 °F 87% 29.68 in 1.0 mi WNW 9.2 mph 18.4 mph N/A Snow Light Snow
2:18 PM 32.0 °F 23.0 °F 28.9 °F 88% 29.69 in 1.0 mi WNW 11.5 mph - 0.01 in Snow Light Snow
2:33 PM 32.0 °F 22.5 °F 28.0 °F 85% 29.69 in 1.0 mi WNW 12.7 mph - 0.01 in Snow Light Snow
2:54 PM 32.0 °F 24.2 °F 28.9 °F 88% 29.72 in 1.0 mi WNW 9.2 mph - 0.02 in Snow Light Snow
3:08 PM 32.0 °F 24.2 °F 28.9 °F 88% 29.70 in 1.5 mi WNW 9.2 mph - 0.00 in Snow Light Snow
3:29 PM 32.0 °F 24.2 °F 28.4 °F 87% 29.71 in 1.0 mi NW 9.2 mph 18.4 mph N/A Snow Light Snow
3:51 PM 32.0 °F 23.6 °F 28.4 °F 87% 29.72 in 0.8 mi WNW 10.4 mph - 0.01 in Snow Light Snow
3:54 PM 32.0 °F 24.2 °F 28.9 °F 88% 29.74 in 1.0 mi WNW 9.2 mph - 0.01 in Snow Light Snow
3:58 PM 32.0 °F 24.8 °F 30.0 °F 92% 29.72 in 1.0 mi WNW 8.1 mph - 0.00 in Snow Light Snow
4:12 PM 32.0 °F 24.8 °F 30.0 °F 92% 29.72 in 1.5 mi WNW 8.1 mph - 0.00 in Snow Light Snow
4:26 PM 32.0 °F 24.2 °F 28.9 °F 88% 29.72 in 1.8 mi WNW 9.2 mph - 0.00 in Snow Light Snow
4:31 PM 32.0 °F 24.8 °F 28.9 °F 88% 29.73 in 2.0 mi WNW 8.1 mph - 0.00 in Snow Light Snow
4:48 PM 32.0 °F 24.2 °F 28.4 °F 87% 29.73 in 2.0 mi West 9.2 mph - 0.00 in Snow Light Snow
4:54 PM 32.0 °F 25.6 °F 28.9 °F 88% 29.75 in 2.0 mi WNW 6.9 mph - 0.01 in Snow Light Snow
5:11 PM 32.0 °F 26.4 °F 30.0 °F 92% 29.74 in 3.0 mi WNW 5.8 mph - 0.00 in Snow Light Snow
5:54 PM 32.0 °F 25.6 °F 28.9 °F 88% 29.77 in 7.0 mi WNW 6.9 mph - 0.00 in   Overcast
6:25 PM 32.0 °F 23.6 °F 28.9 °F 88% 29.76 in 6.0 mi WNW 10.4 mph - 0.00 in Snow Light Snow
6:45 PM 32.0 °F 24.2 °F 28.9 °F 88% 29.77 in 3.0 mi WNW 9.2 mph - 0.00 in Snow Light Snow
6:54 PM 32.0 °F 24.2 °F 28.9 °F 88% 29.79 in 4.0 mi WNW 9.2 mph - 0.00 in Snow Light Snow
7:20 PM 32.0 °F 24.8 °F 28.9 °F 88% 29.77 in 2.0 mi WNW 8.1 mph - 0.00 in Snow Light Snow
7:33 PM 32.0 °F 24.8 °F 28.9 °F 88% 29.77 in 5.0 mi WNW 8.1 mph - 0.01 in Snow Light Snow
7:50 PM 32.0 °F 24.2 °F 28.4 °F 87% 29.78 in 2.0 mi NW 9.2 mph - 0.01 in Snow Light Snow
7:54 PM 32.0 °F 24.2 °F 28.4 °F 87% 29.78 in 2.5 mi NW 9.2 mph - N/A Snow Light Snow
8:15 PM 32.0 °F 23.6 °F 28.9 °F 88% 29.78 in 4.0 mi NW 10.4 mph 19.6 mph 0.00 in Snow Light Snow
8:37 PM 32.0 °F 24.2 °F 28.9 °F 88% 29.78 in 8.0 mi NW 9.2 mph - 0.00 in   Overcast
8:54 PM 32.0 °F 24.2 °F 28.9 °F 88% 29.81 in 4.0 mi WNW 9.2 mph - 0.00 in Snow Light Snow
9:54 PM 32.0 °F 25.6 °F 28.9 °F 88% 29.82 in 7.0 mi NW 6.9 mph - 0.00 in   Overcast
10:54 PM 32.0 °F 24.8 °F 28.9 °F 88% 29.82 in 10.0 mi NW 8.1 mph - N/A   Overcast
11:54 PM 32.0 °F 25.6 °F 28.4 °F 87% 29.80 in 7.0 mi NW 6.9 mph - N/A   Overcast